| time (UTC) | temp F | wind direction | speed knots | gust knots | rain 1hr in | rain 24hr in | rain mn in | humidity % | barometer mb |
| 20260906163011 | 56 | 162 | 0.0 | 0.0 | 0.00 | 0.04 | 0.04 | 80 | 1015.6 |
| 20260906161503 | 55 | 162 | 0.0 | 0.9 | 0.00 | 0.04 | 0.04 | 86 | 1015.9 |
| 20260906160100 | 54 | 162 | 0.0 | 0.0 | 0.00 | 0.04 | 0.04 | 89 | 1016.0 |
| 20260906154558 | 53 | 162 | 0.0 | 0.9 | 0.00 | 0.04 | 0.04 | 89 | 1016.2 |
| 20260906153058 | 52 | 162 | 0.0 | 0.9 | 0.00 | 0.04 | 0.04 | 91 | 1016.3 |
| 20260906151554 | 52 | 162 | 0.0 | 0.0 | 0.00 | 0.04 | 0.04 | 90 | 1016.3 |
| 20260906150056 | 52 | 162 | 0.0 | 0.0 | 0.00 | 0.04 | 0.04 | 91 | 1016.5 |
| 20260906144554 | 51 | 162 | 0.0 | 0.9 | 0.00 | 0.04 | 0.04 | 93 | 1016.5 |
| 20260906143050 | 50 | 162 | 0.0 | 0.0 | 0.00 | 0.04 | 0.04 | 94 | 1016.7 |
| 20260906141549 | 49 | 162 | 0.0 | 0.9 | 0.00 | 0.04 | 0.04 | 94 | 1016.6 |
| 20260906140045 | 49 | 162 | 0.0 | 0.9 | 0.00 | 0.04 | 0.04 | 94 | 1016.8 |
| 20260906134548 | 48 | 162 | 0.0 | 0.0 | 0.00 | 0.04 | 0.04 | 94 | 1016.8 |
| 20260906133046 | 48 | 162 | 0.0 | 0.0 | 0.00 | 0.04 | 0.04 | 94 | 1016.7 |
| 20260906131543 | 48 | 162 | 0.0 | 0.0 | 0.00 | 0.04 | 0.04 | 94 | 1016.7 |
| 20260906130049 | 48 | 162 | 0.0 | 0.0 | 0.00 | 0.04 | 0.04 | 93 | 1016.7 |
| 20260906124541 | 48 | 161 | 0.0 | 0.9 | 0.04 | 0.04 | 0.04 | 93 | 1016.9 |
| 20260906123042 | 48 | 162 | 0.0 | 0.0 | 0.04 | 0.04 | 0.04 | 92 | 1016.9 |
| 20260906121543 | 48 | 162 | 0.0 | 0.0 | 0.04 | 0.04 | 0.04 | 91 | 1016.8 |
| 20260906120038 | 48 | 162 | 0.0 | 0.9 | 0.04 | 0.04 | 0.04 | 90 | 1016.9 |
| 20260906114550 | 48 | 162 | 0.0 | 3.5 | 0.00 | 0.00 | 0.00 | 89 | 1017.2 |
| 20260906113049 | 48 | 162 | 0.0 | 1.7 | 0.00 | 0.00 | 0.00 | 89 | 1016.8 |
| 20260906111535 | 49 | 162 | 0.0 | 1.7 | 0.00 | 0.00 | 0.00 | 84 | 1016.7 |
| 20260906110033 | 49 | 162 | 0.0 | 1.7 | 0.00 | 0.00 | 0.00 | 86 | 1017.1 |
| 20260906104533 | 49 | 162 | 0.0 | 0.9 | 0.00 | 0.00 | 0.00 | 82 | 1016.8 |
| 20260906103033 | 48 | 162 | 0.0 | 0.0 | 0.00 | 0.00 | 0.00 | 83 | 1017.1 |
| 20260906101532 | 49 | 162 | 0.0 | 0.9 | 0.00 | 0.00 | 0.00 | 81 | 1017.2 |
| 20260906100030 | 51 | 162 | 0.0 | 2.6 | 0.00 | 0.00 | 0.00 | 78 | 1017.0 |
| 20260906094527 | 49 | 161 | 0.0 | 0.9 | 0.00 | 0.00 | 0.00 | 81 | 1017.3 |
| 20260906093027 | 48 | 162 | 0.0 | 0.9 | 0.00 | 0.00 | 0.00 | 83 | 1017.5 |
| 20260906091533 | 48 | 162 | 0.0 | 1.7 | 0.00 | 0.00 | 0.00 | 83 | 1017.1 |
| 20260906090028 | 47 | 161 | 0.0 | 0.0 | 0.00 | 0.00 | 0.00 | 84 | 1017.0 |
| 20260906084526 | 46 | 162 | 0.0 | 0.0 | 0.00 | 0.00 | 0.00 | 87 | 1017.6 |
| 20260906083023 | 45 | 162 | 0.0 | 0.9 | 0.00 | 0.00 | 0.00 | 85 | 1017.4 |
| 20260906081535 | 46 | 161 | 0.0 | 0.9 | 0.00 | 0.00 | 0.00 | 83 | 1017.0 |
| 20260906080018 | 48 | 162 | 0.0 | 1.7 | 0.00 | 0.00 | 0.00 | 81 | 1017.0 |
| 20260906074520 | 49 | 162 | 0.0 | 0.0 | 0.00 | 0.00 | 0.00 | 81 | 1017.2 |
| 20260906073015 | 49 | 162 | 0.0 | 0.0 | 0.00 | 0.00 | 0.00 | 82 | 1017.6 |
| 20260906071514 | 48 | 162 | 0.0 | 0.0 | 0.00 | 0.00 | 0.00 | 83 | 1017.7 |
| 20260906070013 | 48 | 162 | 0.0 | 0.0 | 0.00 | 0.00 | 0.00 | 82 | 1017.5 |
| 20260906064511 | 49 | 162 | 0.0 | 0.0 | 0.00 | 0.00 | 0.00 | 80 | 1017.5 |
| 20260906063008 | 48 | 161 | 0.0 | 0.0 | 0.00 | 0.00 | 0.00 | 82 | 1017.3 |
| 20260906061508 | 48 | 161 | 0.0 | 0.9 | 0.00 | 0.00 | 0.00 | 82 | 1017.3 |
| 20260906060014 | 48 | 162 | 0.0 | 0.0 | 0.00 | 0.00 | 0.00 | 81 | 1017.4 |
| 20260906054505 | 48 | 162 | 0.0 | 0.9 | 0.00 | 0.00 | 0.00 | 81 | 1017.4 |
| 20260906053010 | 49 | 162 | 0.0 | 0.9 | 0.00 | 0.00 | 0.00 | 79 | 1017.3 |
| 20260906051505 | 50 | 162 | 0.0 | 0.0 | 0.00 | 0.00 | 0.00 | 78 | 1017.3 |
| 20260906050013 | 51 | 161 | 0.0 | 0.9 | 0.00 | 0.00 | 0.00 | 76 | 1017.2 |
| 20260906044503 | 52 | 162 | 0.0 | 0.9 | 0.00 | 0.00 | 0.00 | 74 | 1017.2 |
| 20260906043003 | 52 | 162 | 0.0 | 0.9 | 0.00 | 0.00 | 0.00 | 76 | 1017.1 |
| 20260906041502 | 52 | 162 | 0.0 | 0.0 | 0.00 | 0.00 | 0.00 | 73 | 1017.0 |
| 20260906040002 | 55 | 162 | 0.0 | 0.9 | 0.00 | 0.00 | 0.00 | 67 | 1016.9 |
| 20260906034600 | 54 | 162 | 0.0 | 2.6 | 0.00 | 0.00 | 0.00 | 68 | 1016.8 |
| 20260906033100 | 55 | 161 | 0.0 | 0.9 | 0.00 | 0.00 | 0.00 | 67 | 1016.8 |
| 20260906031604 | 58 | 162 | 0.9 | 5.2 | 0.00 | 0.00 | 0.00 | 59 | 1016.6 |
| 20260906030058 | 58 | 162 | 0.0 | 2.6 | 0.00 | 0.00 | 0.00 | 62 | 1016.3 |
| 20260906024557 | 59 | 162 | 0.0 | 0.9 | 0.00 | 0.00 | 0.00 | 60 | 1016.2 |
| 20260906023059 | 61 | 162 | 0.0 | 1.7 | 0.00 | 0.00 | 0.00 | 55 | 1016.0 |
| 20260906021556 | 62 | 162 | 0.0 | 0.0 | 0.00 | 0.00 | 0.00 | 52 | 1015.9 |
| 20260906014555 | 68 | 162 | 0.9 | 2.6 | 0.00 | 0.00 | 0.00 | 41 | 1015.5 |
| 20260906013054 | 70 | 161 | 0.9 | 5.2 | 0.00 | 0.00 | 0.00 | 38 | 1015.4 |
| 20260906011552 | 71 | 162 | 1.7 | 4.3 | 0.00 | 0.00 | 0.00 | 37 | 1015.2 |
| 20260906010052 | 72 | 162 | 0.9 | 5.2 | 0.00 | 0.00 | 0.00 | 37 | 1015.3 |
| 20260906004552 | 72 | 162 | 1.7 | 5.2 | 0.00 | 0.00 | 0.00 | 35 | 1015.2 |
| 20260906003050 | 72 | 162 | 0.9 | 3.5 | 0.00 | 0.00 | 0.00 | 37 | 1015.1 |
| 20260906001549 | 72 | 162 | 1.7 | 5.2 | 0.00 | 0.00 | 0.00 | 36 | 1015.2 |
| 20260906000048 | 73 | 162 | 0.0 | 2.6 | 0.00 | 0.00 | 0.00 | 37 | 1015.2 |
| 20260905234546 | 73 | 162 | 0.0 | 1.7 | 0.00 | 0.00 | 0.00 | 38 | 1015.4 |
| 20260905233048 | 72 | 161 | 0.9 | 2.6 | 0.00 | 0.00 | 0.00 | 36 | 1015.6 |
| 20260905231544 | 73 | 162 | 1.7 | 3.5 | 0.00 | 0.00 | 0.00 | 36 | 1015.7 |
| 20260905230049 | 72 | 162 | 1.7 | 3.5 | 0.00 | 0.00 | 0.00 | 35 | 1015.8 |
| 20260905224559 | 73 | 162 | 0.9 | 3.5 | 0.00 | 0.00 | 0.00 | 35 | 1015.9 |
| 20260905223038 | 72 | 162 | 0.0 | 3.5 | 0.00 | 0.00 | 0.00 | 37 | 1016.1 |
| 20260905221544 | 70 | 162 | 0.9 | 3.5 | 0.00 | 0.00 | 0.00 | 39 | 1016.2 |
| 20260905220039 | 71 | 162 | 1.7 | 4.3 | 0.00 | 0.00 | 0.00 | 38 | 1016.4 |
| 20260905214534 | 71 | 161 | 2.6 | 4.3 | 0.00 | 0.00 | 0.00 | 39 | 1016.4 |
| 20260905213033 | 71 | 162 | 0.9 | 7.0 | 0.00 | 0.00 | 0.00 | 40 | 1016.4 |
| 20260905211531 | 72 | 162 | 2.6 | 7.0 | 0.00 | 0.00 | 0.00 | 39 | 1016.6 |
| 20260905210030 | 71 | 162 | 0.9 | 3.5 | 0.00 | 0.00 | 0.00 | 41 | 1016.7 |
| 20260905204531 | 72 | 162 | 1.7 | 3.5 | 0.00 | 0.00 | 0.00 | 41 | 1016.9 |
| 20260905203028 | 70 | 162 | 0.0 | 2.6 | 0.00 | 0.00 | 0.00 | 44 | 1017.1 |
| 20260905201526 | 70 | 162 | 2.6 | 6.1 | 0.00 | 0.00 | 0.00 | 43 | 1017.2 |
| 20260905200025 | 69 | 162 | 0.0 | 4.3 | 0.00 | 0.00 | 0.00 | 45 | 1017.5 |
| 20260905194522 | 68 | 162 | 1.7 | 3.5 | 0.00 | 0.00 | 0.00 | 51 | 1017.7 |
| 20260905193026 | 67 | 162 | 0.9 | 3.5 | 0.00 | 0.00 | 0.00 | 49 | 1017.8 |
| 20260905191518 | 67 | 162 | 0.0 | 1.7 | 0.00 | 0.00 | 0.00 | 53 | 1018.1 |
| 20260905190014 | 65 | 162 | 0.9 | 5.2 | 0.00 | 0.00 | 0.00 | 55 | 1018.4 |
| 20260905184512 | 63 | 162 | 0.0 | 2.6 | 0.00 | 0.00 | 0.00 | 57 | 1018.5 |
| 20260905183009 | 62 | 162 | 0.9 | 3.5 | 0.00 | 0.00 | 0.00 | 60 | 1018.8 |
| 20260905181505 | 61 | 162 | 0.0 | 1.7 | 0.00 | 0.00 | 0.00 | 61 | 1019.0 |
| 20260905180001 | 59 | 162 | 0.0 | 2.6 | 0.00 | 0.00 | 0.00 | 65 | 1019.1 |
| 20260905174557 | 58 | 162 | 0.0 | 3.5 | 0.00 | 0.00 | 0.00 | 67 | 1019.3 |
| 20260905173056 | 56 | 162 | 0.0 | 1.7 | 0.00 | 0.00 | 0.00 | 71 | 1019.6 |
| 20260905171550 | 53 | 162 | 0.0 | 0.9 | 0.00 | 0.00 | 0.00 | 78 | 1019.7 |
| 20260905170046 | 51 | 162 | 0.0 | 1.7 | 0.00 | 0.00 | 0.00 | 80 | 1019.9 |
| 20260905164545 | 49 | 162 | 0.0 | 0.0 | 0.00 | 0.00 | 0.00 | 82 | 1019.9 |